DW1105 Weather Reports


Display with metric or nautical units.
time (UTC)temp
F
wind
direction
speed
MPH
gust
MPH
rain 1hr
in
rain 24hr
in
rain mn
in
humidity
%
barometer
mb
20260505183827 83 226 3.0 7.0 0.00 0.00 0.00 36 1007.8
20260505183324 83 221 2.0 5.0 0.00 0.00 0.00 36 1007.9
20260505182820 84 175 1.0 5.0 0.00 0.00 0.00 37 1007.9
20260505182317 84 207 2.0 5.0 0.00 0.00 0.00 34 1008.1
20260505181813 84 199 1.0 5.0 0.00 0.00 0.00 37 1008.0
20260505181313 84 71 2.0 4.0 0.00 0.00 0.00 36 1008.0
20260505180830 83 172 1.0 8.0 0.00 0.00 0.00 38 1008.0
20260505180326 83 191 2.0 8.0 0.00 0.00 0.00 37 1008.0
20260505175823 83 160 1.0 7.0 0.00 0.00 0.00 38 1008.1
20260505175319 82 187 2.0 6.0 0.00 0.00 0.00 40 1008.1
20260505174814 82 147 2.0 5.0 0.00 0.00 0.00 39 1008.3
20260505174310 82 160 2.0 6.0 0.00 0.00 0.00 38 1008.3
20260505173811 82 186 2.0 6.0 0.00 0.00 0.00 39 1008.3
20260505173328 82 121 2.0 7.0 0.00 0.00 0.00 41 1008.5
20260505172824 82 74 1.0 9.0 0.00 0.00 0.00 41 1008.6
20260505172320 81 218 4.0 9.0 0.00 0.00 0.00 41 1008.5
20260505171816 82 154 1.0 5.0 0.00 0.00 0.00 42 1008.6
20260505171312 82 123 1.0 6.0 0.00 0.00 0.00 40 1008.7
20260505170829 81 130 1.0 6.0 0.00 0.00 0.00 42 1008.8
20260505170326 81 355 1.0 12.0 0.00 0.00 0.00 43 1008.8
20260505165826 81 40 3.0 12.0 0.00 0.00 0.00 41 1008.8
20260505165322 81 148 2.0 4.0 0.00 0.00 0.00 42 1008.9
20260505164819 81 118 1.0 4.0 0.00 0.00 0.00 42 1008.9
20260505164315 81 194 1.0 8.0 0.00 0.00 0.00 42 1009.1
20260505163811 81 180 1.0 8.0 0.00 0.00 0.00 44 1009.1
20260505163328 80 211 1.0 6.0 0.00 0.00 0.00 44 1009.1
20260505162823 79 122 2.0 6.0 0.00 0.00 0.00 45 1009.3
20260505162323 79 223 2.0 4.0 0.00 0.00 0.00 46 1009.4
20260505161820 78 39 1.0 8.0 0.00 0.00 0.00 47 1009.3
20260505161316 78 26 1.0 8.0 0.00 0.00 0.00 45 1009.5
20260505160813 78 149 2.0 5.0 0.00 0.00 0.00 45 1009.6
20260505160330 79 174 1.0 9.0 0.00 0.00 0.00 45 1009.6
20260505153311 76 105 1.0 5.0 0.00 0.00 0.00 50 1009.8
20260505152825 76 9 2.0 5.0 0.00 0.00 0.00 46 1009.9
20260505152321 77 116 1.0 4.0 0.00 0.00 0.00 47 1010.0
20260505151818 77 152 1.0 8.0 0.00 0.00 0.00 48 1010.0
20260505151317 76 137 1.0 9.0 0.00 0.00 0.00 48 1009.9
20260505150813 76 84 1.0 4.0 0.00 0.00 0.00 49 1010.1
20260505150330 76 346 1.0 4.0 0.00 0.00 0.00 50 1010.0
20260505140315 71 126 3.0 11.0 0.00 0.00 0.00 54 1010.6
20260505130312 66 46 0.0 5.0 0.00 0.00 0.00 60 1010.5
20260505124824 65 84 1.0 4.0 0.00 0.00 0.00 62 1010.4
20260505124319 65 150 1.0 4.0 0.00 0.00 0.00 62 1010.1
20260505123815 65 130 1.0 3.0 0.00 0.00 0.00 64 1010.1
20260505123312 64 301 0.0 1.0 0.00 0.00 0.00 66 1010.1
20260505122829 64 149 0.0 1.0 0.00 0.00 0.00 66 1010.1
20260505122325 64 144 0.0 1.0 0.00 0.00 0.00 67 1010.1
20260505121825 64 157 0.0 0.0 0.00 0.00 0.00 67 1010.3
20260505121320 64 156 0.0 1.0 0.00 0.00 0.00 67 1010.2
20260505120815 63 154 0.0 1.0 0.00 0.00 0.00 68 1010.3
20260505120312 62 112 0.0 2.0 0.00 0.00 0.00 71 1010.2
20260505115829 61 101 0.0 2.0 0.00 0.00 0.00 73 1010.3
20260505115325 61 263 0.0 0.0 0.00 0.00 0.00 75 1010.4
20260505114821 60 263 0.0 2.0 0.00 0.00 0.00 77 1010.4
20260505114321 59 263 0.0 2.0 0.00 0.00 0.00 78 1010.3
20260505113818 58 252 0.0 1.0 0.00 0.00 0.00 78 1010.2
20260505113314 58 184 0.0 0.0 0.00 0.00 0.00 78 1010.2
20260505112811 58 184 0.0 0.0 0.00 0.00 0.00 78 1010.3
20260505112328 58 184 0.0 0.0 0.00 0.00 0.00 78 1010.2
20260505111824 58 184 0.0 0.0 0.00 0.00 0.00 77 1010.1
20260505111319 59 184 0.0 0.0 0.00 0.00 0.00 78 1010.1
20260505110819 59 185 0.0 0.0 0.00 0.00 0.00 77 1010.0
20260505110316 59 185 0.0 2.0 0.00 0.00 0.00 76 1009.9
20260505101827 60 336 1.0 4.0 0.00 0.00 0.00 68 1010.3
20260505101322 60 274 1.0 3.0 0.00 0.00 0.00 69 1010.1
20260505100818 59 281 0.0 6.0 0.00 0.00 0.00 70 1010.1
20260505100315 58 277 3.0 6.0 0.00 0.00 0.00 70 1010.0
20260505095815 58 326 1.0 3.0 0.00 0.00 0.00 71 1010.0
20260505095312 58 287 2.0 3.0 0.00 0.00 0.00 72 1009.9
20260505094829 58 293 1.0 3.0 0.00 0.00 0.00 72 1009.9
20260505094323 57 303 1.0 2.0 0.00 0.00 0.00 75 1009.9
20260505093820 55 266 0.0 3.0 0.00 0.00 0.00 78 1009.7
20260505093316 54 126 0.0 3.0 0.00 0.00 0.00 80 1009.8
20260505092811 54 109 0.0 3.0 0.00 0.00 0.00 80 1009.6
20260505092312 54 217 0.0 3.0 0.00 0.00 0.00 80 1009.7
20260505091828 54 159 0.0 0.0 0.00 0.00 0.00 79 1009.5
20260505091323 54 159 0.0 0.0 0.00 0.00 0.00 78 1009.6
20260505090819 54 159 0.0 0.0 0.00 0.00 0.00 77 1009.6
20260505090316 54 159 0.0 1.0 0.00 0.00 0.00 76 1009.2
20260505085812 55 158 0.0 2.0 0.00 0.00 0.00 76 1009.3
20260505085329 55 161 0.0 4.0 0.00 0.00 0.00 75 1009.1
20260505084825 56 144 1.0 4.0 0.00 0.00 0.00 74 1009.1
20260505084324 55 153 0.0 1.0 0.00 0.00 0.00 75 1009.1
20260505083821 55 190 0.0 2.0 0.00 0.00 0.00 77 1009.1
20260505083317 54 179 0.0 2.0 0.00 0.00 0.00 78 1009.3
20260505082812 54 188 0.0 0.0 0.00 0.00 0.00 79 1009.2
20260505082329 53 188 0.0 0.0 0.00 0.00 0.00 79 1009.3
20260505081825 53 188 0.0 0.0 0.00 0.00 0.00 79 1009.2
20260505081321 54 188 0.0 0.0 0.00 0.00 0.00 79 1009.2
20260505080821 54 186 0.0 1.0 0.00 0.00 0.00 78 1009.1
20260505080318 54 184 0.0 1.0 0.00 0.00 0.00 78 1009.3
20260505075814 54 155 0.0 0.0 0.00 0.00 0.00 78 1009.3
20260505075329 55 138 0.0 1.0 0.00 0.00 0.00 78 1009.5
20260505074826 55 138 0.0 1.0 0.00 0.00 0.00 77 1009.4
20260505074321 55 140 0.0 2.0 0.00 0.00 0.00 77 1009.2
20260505073816 55 144 1.0 2.0 0.00 0.00 0.00 78 1009.2
20260505073317 55 5 0.0 0.0 0.00 0.00 0.00 78 1009.3
20260505072812 55 5 0.0 1.0 0.00 0.00 0.00 78 1009.3
20260505072328 55 335 0.0 1.0 0.00 0.00 0.00 78 1009.2
20260505071824 56 14 0.0 0.0 0.00 0.00 0.00 77 1009.1
20260505071320 56 14 0.0 1.0 0.00 0.00 0.00 76 1009.2
20260505070816 56 14 0.0 2.0 0.00 0.00 0.00 75 1009.2
20260505070313 57 11 0.0 2.0 0.00 0.00 0.00 74 1009.2
20260505065812 58 79 0.0 1.0 0.00 0.00 0.00 70 1009.3
20260505065329 58 79 0.0 1.0 0.00 0.00 0.00 70 1009.3
20260505064825 58 75 0.0 2.0 0.00 0.00 0.00 69 1009.4
20260505064320 58 86 0.0 2.0 0.00 0.00 0.00 69 1009.4
20260505063816 58 145 0.0 2.0 0.00 0.00 0.00 69 1009.4
20260505063313 58 291 0.0 1.0 0.00 0.00 0.00 69 1009.4
20260505062829 58 263 0.0 3.0 0.00 0.00 0.00 69 1009.4
20260505062329 58 187 0.0 4.0 0.00 0.00 0.00 69 1009.5
20260505061825 58 11 1.0 4.0 0.00 0.00 0.00 71 1009.5
20260505061319 57 53 1.0 5.0 0.00 0.00 0.00 72 1009.4
20260505060816 56 69 1.0 6.0 0.00 0.00 0.00 73 1009.4
20260505060312 55 105 0.0 4.0 0.00 0.00 0.00 74 1009.4
20260505055828 55 75 1.0 4.0 0.00 0.00 0.00 74 1009.4
20260505055325 55 146 1.0 2.0 0.00 0.00 0.00 74 1009.5
20260505054826 55 113 0.0 0.0 0.00 0.00 0.00 72 1009.5
20260505054321 56 113 0.0 0.0 0.00 0.00 0.00 71 1009.6
20260505053817 56 113 0.0 0.0 0.00 0.00 0.00 69 1009.6
20260505053314 56 113 0.0 0.0 0.00 0.00 0.00 69 1009.6
20260505052828 56 113 0.0 0.0 0.00 0.00 0.00 68 1009.6
20260505052325 57 113 0.0 0.0 0.00 0.00 0.00 68 1009.6
20260505051822 57 113 0.0 0.0 0.00 0.00 0.00 68 1009.7
20260505051322 57 113 0.0 0.0 0.00 0.00 0.00 67 1009.8
20260505050817 57 113 0.0 0.0 0.00 0.00 0.00 67 1009.8
20260505050314 57 113 0.0 1.0 0.00 0.00 0.00 67 1009.8
20260505041322 56 104 0.0 0.0 0.00 0.00 0.00 67 1010.0
20260505040314 57 104 0.0 0.0 0.00 0.00 0.00 65 1009.8
20260505035813 57 104 0.0 0.0 0.00 0.00 0.00 63 1009.8
20260505035329 57 104 0.0 0.0 0.00 0.00 0.00 60 1009.8
20260505034826 58 104 0.0 0.0 0.00 0.00 0.00 59 1009.8
20260505034321 58 104 0.0 0.0 0.00 0.00 0.00 59 1009.8
20260505033818 58 104 0.0 0.0 0.00 0.00 0.00 58 1009.7
20260505033315 58 104 0.0 0.0 0.00 0.00 0.00 58 1009.8
20260505032810 58 104 0.0 0.0 0.00 0.00 0.00 57 1009.9
20260505032311 58 104 0.0 0.0 0.00 0.00 0.00 57 1009.9
20260505031827 59 104 0.0 0.0 0.00 0.00 0.00 57 1009.9
20260505031321 59 104 0.0 0.0 0.00 0.00 0.00 57 1009.9
20260505030818 59 104 0.0 0.0 0.00 0.00 0.00 57 1010.0
20260505030315 58 104 0.0 0.0 0.00 0.00 0.00 57 1010.0
20260505025829 58 104 0.0 0.0 0.00 0.00 0.00 57 1010.0
20260505025326 58 104 0.0 0.0 0.00 0.00 0.00 57 1010.1
20260505024823 58 104 0.0 0.0 0.00 0.00 0.00 58 1010.1
20260505024322 58 104 0.0 0.0 0.00 0.00 0.00 58 1010.1
20260505023817 58 104 0.0 0.0 0.00 0.00 0.00 58 1010.1
20260505023314 58 104 0.0 0.0 0.00 0.00 0.00 60 1010.2
20260505022829 59 104 0.0 0.0 0.00 0.00 0.00 59 1010.1
20260505022325 59 104 0.0 0.0 0.00 0.00 0.00 56 1010.1
20260505021822 60 104 0.0 0.0 0.00 0.00 0.00 55 1010.1
20260505021319 60 104 0.0 1.0 0.00 0.00 0.00 56 1010.1
20260505020818 60 104 0.0 1.0 0.00 0.00 0.00 56 1010.2
20260505020315 61 104 0.0 0.0 0.00 0.00 0.00 54 1010.2
20260505015829 61 104 0.0 0.0 0.00 0.00 0.00 53 1010.2
20260505015325 61 104 0.0 0.0 0.00 0.00 0.00 53 1010.2
20260505014821 61 104 0.0 1.0 0.00 0.00 0.00 52 1010.1
20260505014317 62 104 0.0 1.0 0.00 0.00 0.00 52 1010.1
20260505013813 62 104 0.0 2.0 0.00 0.00 0.00 52 1010.0
20260505013314 62 104 0.0 2.0 0.00 0.00 0.00 51 1009.9
20260505012810 62 184 0.0 2.0 0.00 0.00 0.00 51 1009.9
20260505012326 63 184 0.0 0.0 0.00 0.00 0.00 50 1009.7
20260505011823 63 184 0.0 0.0 0.00 0.00 0.00 49 1009.7
20260505011319 63 184 0.0 0.0 0.00 0.00 0.00 48 1009.7
20260505010814 63 184 0.0 0.0 0.00 0.00 0.00 48 1009.6
20260505010311 64 184 0.0 2.0 0.00 0.00 0.00 47 1009.5
20260505005830 64 184 0.0 2.0 0.00 0.00 0.00 47 1009.5
20260505005327 64 146 0.0 1.0 0.00 0.00 0.00 47 1009.4
20260505004823 64 140 0.0 2.0 0.00 0.00 0.00 47 1009.4
20260505004318 64 140 0.0 2.0 0.00 0.00 0.00 47 1009.4
20260505003814 65 90 0.0 2.0 0.00 0.00 0.00 46 1009.3
20260505003311 65 151 0.0 2.0 0.00 0.00 0.00 46 1009.1
20260505002827 65 155 0.0 0.0 0.00 0.00 0.00 45 1009.2
20260505002328 65 155 0.0 0.0 0.00 0.00 0.00 46 1009.1
20260505001824 65 155 0.0 0.0 0.00 0.00 0.00 45 1009.0
20260505001319 65 173 0.0 2.0 0.00 0.00 0.00 45 1009.1
20260505000814 66 173 0.0 2.0 0.00 0.00 0.00 45 1009.0
20260505000310 66 188 0.0 2.0 0.00 0.00 0.00 44 1008.9
20260504235827 66 122 1.0 2.0 0.00 0.00 0.00 44 1008.9
20260504235323 66 167 0.0 1.0 0.00 0.00 0.00 43 1008.7
20260504234823 67 186 0.0 1.0 0.00 0.00 0.00 43 1008.6
20260504234319 67 171 0.0 1.0 0.00 0.00 0.00 43 1008.5
20260504233815 67 171 0.0 1.0 0.00 0.00 0.00 43 1008.5
20260504233312 67 137 0.0 0.0 0.00 0.00 0.00 42 1008.5
20260504232828 68 137 0.0 2.0 0.00 0.00 0.00 41 1008.4
20260504232324 68 137 0.0 4.0 0.00 0.00 0.00 41 1008.3
20260504231820 68 191 1.0 4.0 0.00 0.00 0.00 40 1008.4
20260504231320 69 202 1.0 3.0 0.00 0.00 0.00 40 1008.2
20260504230816 69 98 0.0 3.0 0.00 0.00 0.00 40 1008.2
20260504230312 69 135 1.0 3.0 0.00 0.00 0.00 40 1008.1
20260504225828 69 153 0.0 4.0 0.00 0.00 0.00 40 1008.0
20260504225325 69 99 1.0 4.0 0.00 0.00 0.00 39 1008.0
20260504224821 69 193 0.0 2.0 0.00 0.00 0.00 39 1008.0
20260504224316 70 149 0.0 2.0 0.00 0.00 0.00 38 1008.0
20260504223816 70 193 0.0 2.0 0.00 0.00 0.00 38 1008.1
20260504223313 70 144 0.0 2.0 0.00 0.00 0.00 39 1008.1
20260504222829 70 146 0.0 3.0 0.00 0.00 0.00 37 1008.1
20260504222326 71 146 0.0 2.0 0.00 0.00 0.00 37 1008.1
20260504221821 71 88 0.0 8.0 0.00 0.00 0.00 38 1008.2
20260504221316 71 179 1.0 4.0 0.00 0.00 0.00 37 1008.3
20260504220813 71 135 1.0 4.0 0.00 0.00 0.00 37 1008.2
20260504220314 71 240 0.0 3.0 0.00 0.00 0.00 38 1008.3
20260504215829 71 163 1.0 3.0 0.00 0.00 0.00 37 1008.3
20260504215325 71 173 1.0 4.0 0.00 0.00 0.00 37 1008.3
20260504214821 71 218 1.0 4.0 0.00 0.00 0.00 39 1008.3
20260504214317 71 108 1.0 5.0 0.00 0.00 0.00 37 1008.4
20260504213814 71 150 1.0 5.0 0.00 0.00 0.00 37 1008.6
20260504213310 71 241 1.0 5.0 0.00 0.00 0.00 37 1008.6
20260504212825 72 108 2.0 6.0 0.00 0.00 0.00 36 1008.6
20260504212326 72 96 1.0 6.0 0.00 0.00 0.00 36 1008.6
20260504211822 72 282 3.0 5.0 0.00 0.00 0.00 35 1008.6
20260504211318 73 32 1.0 3.0 0.00 0.00 0.00 35 1008.5
20260504210814 72 11 1.0 3.0 0.00 0.00 0.00 36 1008.6
20260504210311 72 5 1.0 8.0 0.00 0.00 0.00 36 1008.5
20260504205827 72 173 1.0 8.0 0.00 0.00 0.00 35 1008.6
20260504205323 73 329 2.0 6.0 0.00 0.00 0.00 34 1008.6
20260504204823 73 189 0.0 10.0 0.00 0.00 0.00 36 1008.6
20260504204319 73 339 2.0 15.0 0.00 0.00 0.00 35 1008.6
20260504203815 73 49 1.0 3.0 0.00 0.00 0.00 37 1008.4
20260504203312 73 182 1.0 6.0 0.00 0.00 0.00 34 1008.5
20260504202828 73 317 1.0 6.0 0.00 0.00 0.00 35 1008.5
20260504202324 74 224 2.0 4.0 0.00 0.00 0.00 34 1008.5
20260504201820 73 198 1.0 8.0 0.00 0.00 0.00 35 1008.6
20260504201320 72 203 2.0 10.0 0.00 0.00 0.00 33 1008.6
20260504200816 72 288 2.0 9.0 0.00 0.00 0.00 34 1008.6
20260504200313 72 36 3.0 9.0 0.00 0.00 0.00 33 1008.6
20260504195827 72 330 1.0 6.0 0.00 0.00 0.00 34 1008.7
20260504195324 72 102 1.0 6.0 0.00 0.00 0.00 36 1008.9
20260504194820 72 74 0.0 9.0 0.00 0.00 0.00 34 1008.8
20260504194315 73 129 4.0 9.0 0.00 0.00 0.00 32 1008.9
20260504193815 73 311 1.0 6.0 0.00 0.00 0.00 33 1008.8
20260504193312 73 344 3.0 7.0 0.00 0.00 0.00 33 1008.8
20260504192829 73 292 1.0 4.0 0.00 0.00 0.00 35 1008.8
20260504192325 72 174 1.0 4.0 0.00 0.00 0.00 34 1008.8
20260504191821 72 195 1.0 5.0 0.00 0.00 0.00 33 1008.9
20260504191316 73 307 3.0 5.0 0.00 0.00 0.00 35 1009.1
20260504190812 72 202 3.0 10.0 0.00 0.00 0.00 34 1009.1
20260504190313 71 333 3.0 10.0 0.00 0.00 0.00 34 1009.1
20260504185829 71 347 2.0 9.0 0.00 0.00 0.00 36 1009.3
20260504185325 72 288 3.0 8.0 0.00 0.00 0.00 35 1009.4
20260504184821 72 204 2.0 8.0 0.00 0.00 0.00 35 1009.4
20260504184316 72 111 2.0 7.0 0.00 0.00 0.00 33 1009.4